Regional Weather Roundup
Issued by NWS

Home | Current Version | Previous Version | Text Only | Print | Product List | Glossary Off
Versions: 1 2 3 4 5 6 7 8 9 10 11 12 13 14 15 16 17 18 19 20 21 22 23 24 25 26 27 28 29 30 31 32 33 34 35 36 37 38 39 40 41 42 43 44 45 46 47 48 49 50

000
ASUS43 KMPX 191510
RWRMN
WEATHER ROUNDUP FOR MINNESOTA
NATIONAL WEATHER SERVICE TWIN CITIES/CHANHASSEN MN
1000 AM CDT SAT APR 19 2014


NOTE: "FAIR" INDICATES FEW OR NO CLOUDS BELOW 12,000 FEET WITH NO
SIGNIFICANT WEATHER AND/OR OBSTRUCTIONS TO VISIBILITY. N/A MEANS
CURRENT SKY AND/OR WEATHER CONDITIONS ARE NOT AVAILABLE.

MNZ060>063-068>070-191600-
   Twin Cities Metro

CITY           SKY/WX    TMP DP  RH WIND       PRES   REMARKS
TWIN CITIES    CLOUDY    48  32  53 SE22G35   30.11F
ST PAUL        CLOUDY    47  30  51 S22G28    30.13F
CRYSTAL        CLOUDY    48  31  51 SE20G28   30.08F
BLAINE         CLOUDY    46  32  57 SE20G29   30.10F
EDEN PRAIRIE   CLOUDY    49  33  54 S16       30.09S
LAKEVILLE      PTSUNNY   46  34  61 S21G28    30.09F
SOUTH ST PAUL  PTSUNNY   50  31  47 SE17G28   30.11F
LAKE ELMO      CLOUDY    46  32  57 S20G29    30.13F
$$
MNZ001>005-007-008-013>017-022>024-027-028-191600-
   Northwest Minnesota

CITY           SKY/WX    TMP DP  RH WIND       PRES   REMARKS
BEMIDJI        CLOUDY    46  37  70 S20       29.85S
HALLOCK        CLOUDY    48  41  76 SW14      29.72S
ROSEAU         MOSUNNY   46  39  76 S16G22    29.75F
WARROAD        CLOUDY    43  36  75 SE18      29.76F
THIEF RVR FALL MOSUNNY   52  39  62 SW24      29.78R
CROOKSTON      SUNNY     54  43  66 SW16      29.80R
FOSSTON        CLOUDY    48  39  71 S26G33    29.81R
DETROIT LAKES  CLOUDY    52  41  66 S12       29.86R
MOORHEAD       PTSUNNY   52  45  76 SW12      29.86R
PARK RAPIDS    CLOUDY    48  40  73 S21G29    29.87F
$$
MNZ006-009>011-018-025>026-191600-
   North Central Minnesota

CITY           SKY/WX    TMP DP  RH WIND       PRES   REMARKS
BAUDETTE       CLOUDY    40  33  76 S13G21    29.83S
FLAG ISLAND    CLOUDY    36  30  80 SE29G36   29.76F
INTL FALLS     LGT RAIN  36  32  85 SE15G25   29.93F
WASKISH        CLOUDY    43  37  81 SE12G32   29.84F
BIG FORK       LGT RAIN  39  34  81 S14G29    29.93F
LONGVILLE      CLOUDY    41  37  87 SE13G18   29.92F
GRAND RAPIDS   CLOUDY    37  32  81 SE16G22   29.96F
CRANE LAKE     LGT RAIN  32  32 100 SE8       30.04F WCI  25
ORR            CLOUDY    36  30  80 SE14G23   29.97S
COOK           CLOUDY    36  30  80 S7G17     30.03R
$$
MNZ012-019>021-037-191600-
   Northeast Minnesota

CITY           SKY/WX    TMP DP  RH WIND       PRES   REMARKS
DULUTH         CLOUDY    33  29  85 SE16      30.08F WCI  23
ELY            MIX PCPN  34  30  86 SE21G30   30.04F WCI  22
HIBBING        LGT RAIN  35  31  85 S14G21    30.02F WCI  26
EVELETH        DRIZZLE   34  32  93 SE18G26   30.00F WCI  23
DULUTH HARBOR  CLOUDY    34  30  86 NE14      30.13F WCI  24
TWO HARBORS    CLOUDY    30  27  86 E10       30.12F WCI  21
SILVER BAY     LGT RAIN  30  30 100 NE8       30.16F WCI  23
GRAND MARAIS     N/A     32  30  92 NE14G21   30.30F WCI  22
G MARAIS ARPRT SNOW      27  23  86 E10G20    30.23F VSB 1/2 WCI  17
$$
MNZ029>031-032-039>041-046>048-054>057-064-191600-
   West Central Minnesota

CITY           SKY/WX    TMP DP  RH WIND       PRES   REMARKS
FERGUS FALLS   CLOUDY    54  41  62 S16G26    29.86R
WHEATON        CLOUDY    57  46  67 W8        29.91R
MORRIS         CLOUDY    52  45  76 S18       29.90R
ALEXANDRIA     CLOUDY    47  40  76 S22G33    29.92F
ELBOW LAKE     FAIR      51  42  71 S23G29    29.88R
WADENA         CLOUDY    46  37  71 S22G29    29.88S
GLENWOOD       LGT RAIN  46  39  76 S23G29    29.95R
APPLETON       CLOUDY    55  43  62 S13G20    29.90F
BENSON         LGT RAIN  52  45  76 S17       29.93R
ORTONVILLE     CLOUDY    55  45  67 SW10      29.90R
MADISON        CLOUDY    57  45  62 S10       29.93S
WILLMAR        FAIR      48  39  71 S14G20    29.99F
$$
MNZ033>034-036-042>043-049>051-058-059-191600-
   Central Minnesota

CITY           SKY/WX    TMP DP  RH WIND       PRES   REMARKS
ST CLOUD       PTSUNNY   46  34  62 S16G25    30.00F
SAUK CENTRE    PTSUNNY   45  37  75 S18       29.96S
PAYNESVILLE    CLOUDY    48  37  65 S21       29.98F
AITKIN         PTSUNNY   45  34  65 S23G32    29.95R
PINE RIVER     CLOUDY    45  37  76 S16G25    29.96S
BRAINERD       PTSUNNY   50  34  54 S23G35    29.94S
STAPLES        CLOUDY    46  37  71 S20G29    29.92F
LONG PRAIRIE   PTSUNNY   43  37  81 SE25G31   29.94F
LITTLE FALLS   PTSUNNY   46  34  61 S17G30    29.98S
LITCHFIELD     CLOUDY    48  37  66 SE9G16    30.01S
BUFFALO        CLOUDY    46  34  62 SE15G24   30.05F
MAPLE LAKE     CLOUDY    46  37  70 S13G18    30.04S
$$
MNZ037-044-045-052-053-191600-
   East Central Minnesota

CITY           SKY/WX    TMP DP  RH WIND       PRES   REMARKS
PRINCETON      CLOUDY    45  32  61 SE17      30.04F
MORA           CLOUDY    39  30  70 CALM      30.07F
CAMBRIDGE      CLOUDY    45  32  61 SE15G21   30.04F
RUSH CITY      CLOUDY    40  30  66 SE18G29   30.07F
HINCKLEY       CLOUDY    41  30  65 SE14G24   30.07F
CLOQUET        CLOUDY    39  27  60 SE13G20   30.06F
MCGREGOR       PTSUNNY   43  32  65 S18G31    30.00F
$$
MNZ071>073-080-081-089-090-097-098-191600-
   Southwest Minnesota

CITY           SKY/WX    TMP DP  RH WIND       PRES   REMARKS
MONTEVIDEO     CLOUDY    54  45  71 SW13      29.96R
GRANITE FALLS  CLOUDY    54  44  68 S16       29.98R
CANBY          CLOUDY    57  43  60 SW8       29.95R
MARSHALL       CLOUDY    57  43  58 SW23G30   29.95R
REDWOOD FALLS  CLOUDY    54  39  57 S23       29.98F
OLIVIA         CLOUDY    52  39  62 S17G25    29.98S
PIPESTONE      PTSUNNY   59  43  55 SW24G32   29.96R
WINDOM         PTSUNNY   59  39  47 S22G31    29.98F
WORTHINGTON    MOSUNNY   61  39  44 S22G36    30.00S
JACKSON        PTSUNNY   59  37  44 S23G32    30.02F
TRACY          PTSUNNY   58  43  57 S20G30    29.97R
SLAYTON        MOSUNNY   58  41  54 S23G36    29.98S
$$
MNZ065>067-074>077-082>085-091>093-191600-
   South Central Minnesota

CITY           SKY/WX    TMP DP  RH WIND       PRES   REMARKS
MANKATO        PTSUNNY   48  36  61 S24G32    30.06S
NEW ULM        PTSUNNY   54  39  58 S23G31    30.02F
ST JAMES       CLOUDY    55  37  50 SE23G31   30.03R
FAIRMONT       CLOUDY    54  36  50 S28G33    30.06S
GLENCOE        CLOUDY    51  36  56 SE15G22   30.04F
FARIBAULT      PTSUNNY   50  30  46 S18G29    30.09F
OWATONNA       PTSUNNY   46  34  61 SE24G32   30.11S
WASECA         PTSUNNY   48  36  61 SE23G30   30.11F
ALBERT LEA     PTSUNNY   46  34  61 S25G35    30.11F
$$
MNZ078>079-086>088-094>096-191600-
   Southeast Minnesota

CITY           SKY/WX    TMP DP  RH WIND       PRES   REMARKS
ROCHESTER      PTSUNNY   46  31  55 SE25G33   30.16F
RED WING       PTSUNNY   48  27  43 SE20G26   30.14F
STANTON        PTSUNNY   50  32  50 SE22G31   30.09F
DODGE CENTER   PTSUNNY   46  34  61 S26G35    30.13S
WINONA         MOSUNNY   48  28  46 SE17G24   30.22F
AUSTIN         PTSUNNY   46  30  53 SE17G23   30.14F
PRESTON        MOSUNNY   46  28  49 S16G23    30.21F
$$
ABBREVIATIONS USED IN REMARKS
   TC - TEMPERATURES IN CELSIUS
  WCI - WIND CHILL INDEX
   HX - HEAT INDEX
  VSB - VISIBILITY
$$


USA.gov is the U.S. government's official web portal to all federal, state and local government web resources and services.